TimeCST,TemperatureF,Dew PointF,Humidity,Sea Level PressureIn,VisibilityMPH,Wind Direction,Wind SpeedMPH,Gust SpeedMPH,PrecipitationIn,Events,Conditions,WindDirDegrees,DateUTC
12:15 AM,32.0,24.8,75,30.39,10.0,NNW,3.5,-,N/A,,Overcast,340,2013-01-04 06:15:00
12:35 AM,30.2,24.8,80,30.39,10.0,Calm,Calm,-,N/A,,Mostly Cloudy,0,2013-01-04 06:35:00
12:55 AM,30.2,24.8,80,30.39,10.0,Calm,Calm,-,N/A,,Overcast,0,2013-01-04 06:55:00
1:35 AM,30.2,24.8,80,30.40,10.0,West,3.5,-,N/A,,Overcast,280,2013-01-04 07:35:00
1:55 AM,30.2,24.8,80,30.40,10.0,Calm,Calm,-,N/A,,Overcast,0,2013-01-04 07:55:00
2:15 AM,30.2,24.8,80,30.40,10.0,NNW,3.5,-,N/A,,Overcast,330,2013-01-04 08:15:00
2:35 AM,30.2,24.8,80,30.40,10.0,Calm,Calm,-,N/A,,Partly Cloudy,0,2013-01-04 08:35:00
3:15 AM,28.4,23.0,80,30.40,10.0,Calm,Calm,-,N/A,,Overcast,0,2013-01-04 09:15:00
3:35 AM,26.6,21.2,80,30.39,10.0,Calm,Calm,-,N/A,,Partly Cloudy,0,2013-01-04 09:35:00
4:15 AM,24.8,21.2,86,30.39,10.0,Calm,Calm,-,N/A,,Clear,0,2013-01-04 10:15:00
4:35 AM,24.8,21.2,86,30.39,10.0,Calm,Calm,-,N/A,,Clear,0,2013-01-04 10:35:00
4:55 AM,21.2,17.6,86,30.39,10.0,Calm,Calm,-,N/A,,Clear,0,2013-01-04 10:55:00
5:15 AM,23.0,21.2,93,30.40,7.0,Calm,Calm,-,N/A,,Clear,0,2013-01-04 11:15:00
5:35 AM,21.2,21.2,100,30.40,7.0,Calm,Calm,-,N/A,,Clear,0,2013-01-04 11:35:00
5:55 AM,21.2,15.8,80,30.40,7.0,Calm,Calm,-,N/A,,Clear,0,2013-01-04 11:55:00
6:15 AM,21.2,19.4,93,30.41,6.0,Calm,Calm,-,N/A,,Clear,0,2013-01-04 12:15:00
6:35 AM,21.2,19.4,93,30.42,7.0,Calm,Calm,-,N/A,,Clear,0,2013-01-04 12:35:00
7:15 AM,21.2,19.4,93,30.42,7.0,SSW,4.6,-,N/A,,Clear,200,2013-01-04 13:15:00
7:55 AM,24.8,21.2,86,30.43,5.0,SSE,4.6,-,N/A,,Clear,160,2013-01-04 13:55:00
8:15 AM,26.6,23.0,86,30.43,6.0,South,3.5,-,N/A,,Clear,180,2013-01-04 14:15:00
8:35 AM,26.6,24.8,93,30.43,7.0,Calm,Calm,-,N/A,,Clear,0,2013-01-04 14:35:00
8:55 AM,28.4,24.8,86,30.42,9.0,Calm,Calm,-,N/A,,Clear,0,2013-01-04 14:55:00
9:15 AM,30.2,24.8,80,30.43,10.0,SSW,4.6,-,N/A,,Clear,200,2013-01-04 15:15:00
9:55 AM,33.8,23.0,65,30.44,10.0,South,4.6,-,N/A,,Clear,190,2013-01-04 15:55:00
10:15 AM,35.6,24.8,65,30.44,10.0,SSW,4.6,-,N/A,,Clear,200,2013-01-04 16:15:00
10:35 AM,35.6,21.2,56,30.45,10.0,WSW,4.6,-,N/A,,Clear,240,2013-01-04 16:35:00
10:55 AM,37.4,21.2,52,30.44,10.0,South,4.6,-,N/A,,Clear,190,2013-01-04 16:55:00
11:35 AM,39.2,21.2,49,30.42,10.0,WSW,5.8,-,N/A,,Clear,250,2013-01-04 17:35:00
11:55 AM,39.2,21.2,49,30.42,10.0,WSW,6.9,-,N/A,,Clear,250,2013-01-04 17:55:00
12:15 PM,41.0,21.2,45,30.40,10.0,SSW,8.1,-,N/A,,Clear,210,2013-01-04 18:15:00
12:35 PM,42.8,21.2,42,30.39,10.0,SW,10.4,-,N/A,,Clear,220,2013-01-04 18:35:00
12:55 PM,42.8,21.2,42,30.38,10.0,WSW,9.2,16.1,N/A,,Clear,250,2013-01-04 18:55:00
1:35 PM,42.8,21.2,42,30.36,10.0,WSW,6.9,-,N/A,,Clear,250,2013-01-04 19:35:00
1:55 PM,44.6,21.2,39,30.35,10.0,West,6.9,-,N/A,,Clear,280,2013-01-04 19:55:00
2:15 PM,44.6,21.2,39,30.34,10.0,West,8.1,-,N/A,,Clear,280,2013-01-04 20:15:00
2:35 PM,44.6,21.2,39,30.34,10.0,WSW,6.9,-,N/A,,Clear,250,2013-01-04 20:35:00
2:55 PM,44.6,21.2,39,30.33,10.0,West,8.1,-,N/A,,Clear,270,2013-01-04 20:55:00
3:35 PM,46.4,21.2,37,30.34,10.0,West,8.1,-,N/A,,Clear,270,2013-01-04 21:35:00
3:55 PM,46.4,21.2,37,30.34,10.0,WSW,8.1,-,N/A,,Clear,240,2013-01-04 21:55:00
4:15 PM,44.6,21.2,39,30.34,10.0,WSW,10.4,-,N/A,,Clear,240,2013-01-04 22:15:00
4:35 PM,44.6,21.2,39,30.33,10.0,WSW,5.8,-,N/A,,Clear,240,2013-01-04 22:35:00
5:35 PM,41.0,19.4,42,30.33,10.0,SSW,4.6,-,N/A,,Clear,210,2013-01-04 23:35:00
5:55 PM,39.2,21.2,49,30.33,10.0,SW,5.8,-,N/A,,Clear,220,2013-01-04 23:55:00
6:15 PM,37.4,21.2,52,30.34,10.0,SSW,5.8,-,N/A,,Clear,210,2013-01-05 00:15:00
6:55 PM,35.6,21.2,56,30.34,10.0,SSW,6.9,-,N/A,,Clear,200,2013-01-05 00:55:00
7:15 PM,35.6,19.4,52,30.34,10.0,South,4.6,-,N/A,,Clear,190,2013-01-05 01:15:00
7:35 PM,33.8,19.4,56,30.34,10.0,South,5.8,-,N/A,,Clear,170,2013-01-05 01:35:00
7:55 PM,33.8,21.2,60,30.34,10.0,South,5.8,-,N/A,,Clear,190,2013-01-05 01:55:00
8:15 PM,33.8,21.2,60,30.34,10.0,SSW,6.9,-,N/A,,Clear,200,2013-01-05 02:15:00
8:35 PM,33.8,21.2,60,30.34,10.0,South,6.9,-,N/A,,Clear,190,2013-01-05 02:35:00
8:55 PM,33.8,21.2,60,30.34,10.0,South,6.9,-,N/A,,Clear,190,2013-01-05 02:55:00
9:36 PM,30.2,21.2,69,30.34,10.0,South,5.8,-,N/A,,Clear,180,2013-01-05 03:36:00
9:55 PM,30.2,21.2,69,30.33,10.0,South,4.6,-,N/A,,Clear,180,2013-01-05 03:55:00
10:15 PM,32.0,21.2,64,30.33,10.0,South,5.8,-,N/A,,Clear,180,2013-01-05 04:15:00
10:35 PM,30.2,21.2,69,30.33,10.0,South,4.6,-,N/A,,Clear,190,2013-01-05 04:35:00
10:55 PM,30.2,21.2,69,30.31,10.0,South,4.6,-,N/A,,Clear,180,2013-01-05 04:55:00
11:36 PM,28.4,21.2,74,30.31,10.0,Calm,Calm,-,N/A,,Clear,0,2013-01-05 05:36:00
11:55 PM,28.4,21.2,74,30.30,10.0,South,3.5,-,N/A,,Clear,180,2013-01-05 05:55:00